EW1728 Weather Reports


time (UTC)temp
F
wind
direction
speed
knots
gust
knots
rain 1hr
in
rain 24hr
in
rain mn
in
humidity
%
barometer
mb
20260505195756 82 129 0.9 3.5 0.00 0.00 0.00 50 1014.3
20260505195253 81 169 0.9 3.5 0.00 0.00 0.00 49 1014.4
20260505194744 82 136 0.9 3.5 0.00 0.00 0.00 49 1014.6
20260505194231 83 128 0.9 1.7 0.00 0.00 0.00 48 1014.7
20260505193734 84 210 0.9 2.6 0.00 0.00 0.00 47 1015.0
20260505193730 84 260 0.9 2.6 0.00 0.00 0.00 46 1014.8
20260505192725 84 120 0.9 3.5 0.00 0.00 0.00 48 1014.8
20260505192222 83 147 0.9 3.5 0.00 0.00 0.00 45 1015.0
20260505191725 83 141 0.9 1.7 0.00 0.00 0.00 46 1015.0
20260505191721 83 184 0.9 1.7 0.00 0.00 0.00 45 1015.1
20260505190717 83 224 0.9 2.6 0.00 0.00 0.00 44 1015.2
20260505190216 82 186 0.9 2.6 0.00 0.00 0.00 47 1015.4
20260505185713 82 134 0.9 2.6 0.00 0.00 0.00 47 1015.4
20260505185206 81 153 0.9 2.6 0.00 0.00 0.00 47 1015.4
20260505184658 82 155 0.9 1.7 0.00 0.00 0.00 49 1015.5
20260505184155 82 127 0.9 1.7 0.00 0.00 0.00 50 1015.6
20260505183640 81 132 0.9 4.3 0.00 0.00 0.00 49 1015.6
20260505183125 81 95 1.7 4.3 0.00 0.00 0.00 50 1015.7
20260505183056 80 139 1.7 4.3 0.00 0.00 0.00 50 1015.7
20260505182058 82 156 0.9 2.6 0.00 0.00 0.00 47 1015.7
20260505182054 81 115 0.9 4.3 0.00 0.00 0.00 48 1015.8
20260505181535 82 222 0.9 2.6 0.00 0.00 0.00 50 1015.9
20260505180531 81 148 0.9 2.6 0.00 0.00 0.00 50 1016.0
20260505180029 81 162 0.9 2.6 0.00 0.00 0.00 51 1015.9
20260505175528 81 169 0.9 2.6 0.00 0.00 0.00 53 1015.9
20260505175029 81 111 0.9 2.6 0.00 0.00 0.00 51 1015.8
20260505174526 82 160 0.9 2.6 0.00 0.00 0.00 53 1015.9
20260505174026 82 165 0.9 2.6 0.00 0.00 0.00 52 1016.0
20260505173526 82 170 0.9 2.6 0.00 0.00 0.00 53 1015.9
20260505173027 82 195 0.9 3.5 0.00 0.00 0.00 51 1015.9
20260505172519 81 167 0.9 3.5 0.00 0.00 0.00 52 1016.0
20260505172019 80 107 1.7 3.5 0.00 0.00 0.00 53 1016.0
20260505171518 80 107 1.7 4.3 0.00 0.00 0.00 55 1016.1
20260505171016 80 104 0.9 4.3 0.00 0.00 0.00 53 1016.0
20260505170517 81 167 0.9 4.3 0.00 0.00 0.00 52 1016.1
20260505170016 81 285 0.9 2.6 0.00 0.00 0.00 55 1016.2
20260505170012 80 255 0.9 2.6 0.00 0.00 0.00 53 1016.3
20260505165010 80 201 0.9 3.5 0.00 0.00 0.00 55 1016.3
20260505164502 80 135 0.9 3.5 0.00 0.00 0.00 54 1016.4
20260505164002 80 171 0.9 3.5 0.00 0.00 0.00 56 1016.4
20260505163502 79 199 0.9 4.3 0.00 0.00 0.00 57 1016.3
20260505163002 79 154 0.9 4.3 0.00 0.00 0.00 56 1016.3
20260505162450 78 40 0.9 2.6 0.00 0.00 0.00 62 1016.4
20260505161938 77 59 0.9 3.5 0.00 0.00 0.00 62 1016.4
20260505161438 77 145 0.9 3.5 0.00 0.00 0.00 62 1016.4
20260505160936 77 135 0.0 1.7 0.00 0.00 0.00 62 1016.5
20260505160436 77 335 0.9 1.7 0.00 0.00 0.00 61 1016.6
20260505152908 73 145 0.9 1.7 0.00 0.00 0.00 67 1016.9
20260505152408 72 100 0.9 1.7 0.00 0.00 0.00 68 1016.9
20260505151908 72 103 0.0 1.7 0.00 0.00 0.00 69 1016.9
20260505151404 72 142 0.0 1.7 0.00 0.00 0.00 69 1017.0
20260505150900 72 164 0.0 1.7 0.00 0.00 0.00 70 1017.1
20260505150344 71 143 0.0 1.7 0.00 0.00 0.00 71 1017.1
20260505125026 60 242 0.0 0.9 0.00 0.00 0.00 87 1016.7
20260505124526 59 242 0.0 0.9 0.00 0.00 0.00 88 1016.6
20260505124025 59 243 0.0 0.9 0.00 0.00 0.00 88 1016.7
20260505123526 59 243 0.0 0.0 0.00 0.00 0.00 87 1016.6
20260505123026 58 243 0.0 0.9 0.00 0.00 0.00 88 1016.7
20260505122521 58 243 0.0 0.9 0.00 0.00 0.00 89 1016.6
20260505122022 58 240 0.0 0.9 0.00 0.00 0.00 89 1016.6
20260505121520 57 111 0.0 0.9 0.00 0.00 0.00 89 1016.5
20260505121016 57 240 0.0 0.9 0.00 0.00 0.00 89 1016.5
20260505120941 56 240 0.0 0.9 0.00 0.00 0.00 89 1016.5
20260505115938 56 191 0.0 0.0 0.00 0.00 0.00 89 1016.5
20260505115435 56 150 0.0 0.0 0.00 0.00 0.00 89 1016.4
20260505114932 56 150 0.0 0.0 0.00 0.00 0.00 90 1016.4
20260505114435 55 150 0.0 0.0 0.00 0.00 0.00 89 1016.3
20260505114431 55 150 0.0 0.0 0.00 0.00 0.00 89 1016.4
20260505113430 55 150 0.0 0.0 0.00 0.00 0.00 90 1016.2
20260505112929 55 150 0.0 0.0 0.00 0.00 0.00 90 1016.2
20260505112430 54 150 0.0 0.0 0.00 0.00 0.00 90 1016.2
20260505111930 54 150 0.0 0.0 0.00 0.00 0.00 90 1016.1
20260505111418 54 150 0.0 0.0 0.00 0.00 0.00 90 1016.1
20260505110914 54 150 0.0 0.0 0.00 0.00 0.00 91 1016.0
20260505110359 54 150 0.0 0.0 0.00 0.00 0.00 91 1016.0
20260505110349 53 150 0.0 0.0 0.00 0.00 0.00 91 1015.8
20260505102140 53 150 0.0 0.0 0.00 0.00 0.00 89 1015.5
20260505101639 53 150 0.0 0.0 0.00 0.00 0.00 90 1015.4
20260505101600 53 150 0.0 0.0 0.00 0.00 0.00 89 1015.3
20260505101202 53 150 0.0 0.0 0.00 0.00 0.00 89 1015.4
20260505100056 53 150 0.0 0.0 0.00 0.00 0.00 90 1015.2
20260505095537 53 150 0.0 0.0 0.00 0.00 0.00 89 1015.2
20260505095030 53 150 0.0 0.0 0.00 0.00 0.00 89 1015.1
20260505094528 53 150 0.0 0.0 0.00 0.00 0.00 89 1015.2
20260505094504 53 150 0.0 0.0 0.00 0.00 0.00 89 1015.1
20260505093443 53 150 0.0 0.0 0.00 0.00 0.00 89 1015.1
20260505092934 54 150 0.0 0.0 0.00 0.00 0.00 89 1015.2
20260505092430 54 150 0.0 0.0 0.00 0.00 0.00 89 1015.1
20260505092413 54 150 0.0 0.0 0.00 0.00 0.00 88 1015.2
20260505091400 54 150 0.0 0.0 0.00 0.00 0.00 88 1015.1
20260505090825 54 150 0.0 0.0 0.00 0.00 0.00 87 1015.1
20260505090326 54 150 0.0 0.0 0.00 0.00 0.00 87 1015.1
20260505085825 55 150 0.0 0.0 0.00 0.00 0.00 86 1015.1
20260505085325 55 150 0.0 0.0 0.00 0.00 0.00 86 1015.0
20260505084822 55 150 0.0 0.0 0.00 0.00 0.00 86 1014.9
20260505084321 55 150 0.0 0.0 0.00 0.00 0.00 86 1014.9
20260505083817 55 150 0.0 0.0 0.00 0.00 0.00 85 1014.9
20260505083314 56 150 0.0 0.0 0.00 0.00 0.00 85 1015.0
20260505082729 56 150 0.0 0.0 0.00 0.00 0.00 84 1015.0
20260505082644 56 150 0.0 0.0 0.00 0.00 0.00 84 1014.9
20260505081607 56 150 0.0 0.0 0.00 0.00 0.00 84 1014.8
20260505081030 56 150 0.0 0.0 0.00 0.00 0.00 83 1014.8
20260505081026 56 150 0.0 0.0 0.00 0.00 0.00 83 1014.8
20260505080023 57 150 0.0 0.0 0.00 0.00 0.00 83 1014.7
20260505075522 57 150 0.0 0.0 0.00 0.00 0.00 82 1014.7
20260505075017 57 150 0.0 0.0 0.00 0.00 0.00 82 1014.7
20260505074515 57 150 0.0 0.0 0.00 0.00 0.00 82 1014.7
20260505073959 57 150 0.0 0.0 0.00 0.00 0.00 82 1014.7
20260505073448 57 150 0.0 0.0 0.00 0.00 0.00 82 1014.8
20260505072937 58 150 0.0 0.0 0.00 0.00 0.00 81 1014.8
20260505072424 58 150 0.0 0.0 0.00 0.00 0.00 81 1014.9
20260505071919 58 150 0.0 0.0 0.00 0.00 0.00 80 1014.8
20260505071343 58 150 0.0 0.0 0.00 0.00 0.00 80 1014.7
20260505070839 58 150 0.0 0.0 0.00 0.00 0.00 80 1014.7
20260505070330 58 150 0.0 0.0 0.00 0.00 0.00 80 1014.7
20260505065829 58 150 0.0 0.0 0.00 0.00 0.00 80 1014.7
20260505065325 58 150 0.0 0.0 0.00 0.00 0.00 80 1014.6
20260505064748 58 150 0.0 0.0 0.00 0.00 0.00 80 1014.7
20260505064235 58 150 0.0 0.0 0.00 0.00 0.00 79 1014.7
20260505063729 59 150 0.0 0.0 0.00 0.00 0.00 79 1014.7
20260505063213 59 150 0.0 0.0 0.00 0.00 0.00 79 1014.7
20260505062645 59 150 0.0 0.0 0.00 0.00 0.00 78 1014.6
20260505062144 59 154 0.0 0.9 0.00 0.00 0.00 79 1014.7
20260505061641 59 154 0.0 0.9 0.00 0.00 0.00 78 1014.7
20260505061139 59 154 0.0 0.0 0.00 0.00 0.00 78 1014.7
20260505061105 60 154 0.0 0.0 0.00 0.00 0.00 78 1014.7
20260505060059 60 154 0.0 0.0 0.00 0.00 0.00 78 1014.7
20260505060042 60 154 0.0 0.0 0.00 0.00 0.00 78 1014.8
20260505055037 60 155 0.0 0.0 0.00 0.00 0.00 78 1014.7
20260505054536 60 155 0.0 0.0 0.00 0.00 0.00 77 1014.7
20260505054529 60 155 0.0 0.0 0.00 0.00 0.00 77 1014.9
20260505053530 60 155 0.0 0.0 0.00 0.00 0.00 77 1014.9
20260505053025 60 155 0.0 0.0 0.00 0.00 0.00 76 1015.0
20260505052526 60 156 0.0 0.0 0.00 0.00 0.00 77 1015.0
20260505052026 60 156 0.0 0.0 0.00 0.00 0.00 76 1015.0
20260505051524 61 156 0.0 0.0 0.00 0.00 0.00 76 1015.1
20260505051021 61 156 0.0 0.0 0.00 0.00 0.00 76 1015.1
20260505050521 61 137 0.0 0.9 0.00 0.00 0.00 76 1015.1
20260505050517 61 156 0.0 0.9 0.00 0.00 0.00 76 1015.2
20260505040923 62 162 0.0 0.9 0.00 0.00 0.00 74 1015.1
20260505040419 62 156 0.0 0.9 0.00 0.00 0.00 74 1015.1
20260505035905 62 156 0.0 0.9 0.00 0.00 0.00 74 1015.1
20260505035336 62 156 0.0 0.9 0.00 0.00 0.00 74 1015.1
20260505034829 62 146 0.0 0.9 0.00 0.00 0.00 73 1015.1
20260505034329 63 127 0.0 1.7 0.00 0.00 0.00 73 1015.1
20260505033829 63 142 0.0 1.7 0.00 0.00 0.00 73 1015.1
20260505033329 63 159 0.0 0.9 0.00 0.00 0.00 73 1015.1
20260505032831 63 159 0.0 0.9 0.00 0.00 0.00 72 1015.0
20260505032827 63 159 0.0 0.9 0.00 0.00 0.00 73 1015.1
20260505032431 63 159 0.0 0.9 0.00 0.00 0.00 72 1015.0
20260505031804 64 159 0.0 1.7 0.00 0.00 0.00 72 1015.1
20260505030801 64 146 0.0 1.7 0.00 0.00 0.00 72 1015.1
20260505030301 64 153 0.0 0.9 0.00 0.00 0.00 72 1015.1
20260505025751 64 149 0.0 1.7 0.00 0.00 0.00 71 1015.1
20260505025251 64 146 0.0 1.7 0.00 0.00 0.00 71 1015.0
20260505024749 64 163 0.0 0.9 0.00 0.00 0.00 71 1015.0
20260505024246 65 161 0.0 1.7 0.00 0.00 0.00 71 1015.1
20260505023747 65 164 0.0 1.7 0.00 0.00 0.00 70 1015.0
20260505023247 65 159 0.0 1.7 0.00 0.00 0.00 70 1014.9
20260505022746 65 149 0.0 0.9 0.00 0.00 0.00 69 1014.9
20260505022247 65 169 0.0 1.7 0.00 0.00 0.00 70 1014.8
20260505021741 65 157 0.0 1.7 0.00 0.00 0.00 70 1014.9
20260505021235 66 139 0.0 1.7 0.00 0.00 0.00 70 1014.8
20260505020733 66 146 0.0 2.6 0.00 0.00 0.00 69 1014.9
20260505020235 66 148 0.0 2.6 0.00 0.00 0.00 69 1014.8
20260505020230 66 159 0.0 1.7 0.00 0.00 0.00 69 1014.7
20260505015223 67 145 0.0 1.7 0.00 0.00 0.00 69 1014.7
20260505014722 67 137 0.9 1.7 0.00 0.00 0.00 69 1014.7
20260505014219 67 139 0.0 1.7 0.00 0.00 0.00 68 1014.7
20260505013716 67 179 0.0 1.7 0.00 0.00 0.00 68 1014.7
20260505013214 67 167 0.0 1.7 0.00 0.00 0.00 68 1014.5
20260505012709 67 129 0.0 1.7 0.00 0.00 0.00 67 1014.4
20260505012209 67 188 0.0 1.7 0.00 0.00 0.00 64 1014.3
20260505012205 67 170 0.0 0.0 0.00 0.00 0.00 62 1014.2
20260505011159 67 161 0.0 0.0 0.00 0.00 0.00 60 1014.2
20260505011135 67 154 0.0 0.0 0.00 0.00 0.00 61 1014.1
20260505010133 67 154 0.0 0.0 0.00 0.00 0.00 59 1013.9
20260505005632 67 154 0.0 0.0 0.00 0.00 0.00 59 1013.6
20260505005628 67 154 0.0 0.0 0.00 0.00 0.00 59 1013.7
20260505004522 67 154 0.0 0.0 0.00 0.00 0.00 59 1013.5
20260505004022 68 154 0.0 0.0 0.00 0.00 0.00 58 1013.5
20260505003523 68 154 0.0 0.0 0.00 0.00 0.00 58 1013.4
20260505003023 68 154 0.0 0.0 0.00 0.00 0.00 57 1013.4
20260505002508 69 154 0.0 0.0 0.00 0.00 0.00 57 1013.3
20260505002009 69 154 0.0 0.0 0.00 0.00 0.00 55 1013.4
20260505001503 69 154 0.0 0.0 0.00 0.00 0.00 56 1013.4
20260505000959 69 154 0.0 0.0 0.00 0.00 0.00 55 1013.4
20260505000446 69 154 0.0 0.0 0.00 0.00 0.00 55 1013.3
20260504235929 70 154 0.0 0.0 0.00 0.00 0.00 55 1013.4
20260504235425 70 154 0.0 0.0 0.00 0.00 0.00 54 1013.3
20260504234925 70 154 0.0 0.0 0.00 0.00 0.00 55 1013.4
20260504234425 71 154 0.0 0.0 0.00 0.00 0.00 54 1013.3
20260504233922 71 154 0.0 0.0 0.00 0.00 0.00 54 1013.3
20260504233415 71 154 0.0 0.0 0.00 0.00 0.00 54 1013.2
20260504232845 72 154 0.0 0.0 0.00 0.00 0.00 52 1013.1
20260504232342 72 154 0.0 0.0 0.00 0.00 0.00 52 1013.0
20260504231831 72 200 0.0 0.0 0.00 0.00 0.00 50 1013.0
20260504231332 73 165 0.0 0.0 0.00 0.00 0.00 54 1013.0
20260504230829 73 165 0.0 0.0 0.00 0.00 0.00 51 1013.0
20260504230329 73 163 0.0 0.0 0.00 0.00 0.00 49 1012.9
20260504225827 74 162 0.0 0.0 0.00 0.00 0.00 49 1013.0
20260504225326 74 165 0.0 0.0 0.00 0.00 0.00 49 1013.0
20260504224827 74 248 0.0 0.0 0.00 0.00 0.00 50 1013.0
20260504224328 74 252 0.0 0.0 0.00 0.00 0.00 50 1013.0
20260504223821 74 252 0.0 0.0 0.00 0.00 0.00 48 1013.1
20260504223317 75 252 0.0 0.0 0.00 0.00 0.00 48 1013.1
20260504222758 75 155 0.0 0.0 0.00 0.00 0.00 48 1013.0
20260504222237 75 203 0.0 0.0 0.00 0.00 0.00 48 1013.0
20260504221735 76 110 0.0 3.5 0.00 0.00 0.00 48 1013.0
20260504221731 76 115 0.0 0.9 0.00 0.00 0.00 46 1013.0
20260504221338 76 153 0.0 0.9 0.00 0.00 0.00 44 1013.0
20260504221334 76 111 0.0 3.5 0.00 0.00 0.00 47 1013.0
20260504215721 76 150 0.0 0.9 0.00 0.00 0.00 45 1013.0
20260504215201 76 150 0.0 1.7 0.00 0.00 0.00 43 1013.0
20260504215146 77 135 0.0 1.7 0.00 0.00 0.00 44 1013.1
20260504214141 77 147 0.0 0.9 0.00 0.00 0.00 45 1013.0
20260504213625 77 147 0.0 0.9 0.00 0.00 0.00 43 1013.1
20260504213102 78 219 0.0 1.7 0.00 0.00 0.00 43 1013.1
20260504212544 78 174 0.0 1.7 0.00 0.00 0.00 43 1013.1
20260504212539 78 132 0.0 1.7 0.00 0.00 0.00 42 1013.1
20260504211530 78 264 0.0 1.7 0.00 0.00 0.00 41 1013.1
20260504211035 80 174 0.9 3.5 0.00 0.00 0.00 40 1013.2
20260504211031 79 138 0.9 3.5 0.00 0.00 0.00 39 1013.2
20260504210030 80 140 0.0 1.7 0.00 0.00 0.00 39 1013.2
20260504205528 80 168 0.0 1.7 0.00 0.00 0.00 38 1013.2
20260504205025 81 112 0.9 1.7 0.00 0.00 0.00 39 1013.3
20260504204520 81 147 0.9 3.5 0.00 0.00 0.00 36 1013.2
20260504204021 82 161 0.9 3.5 0.00 0.00 0.00 34 1013.3
20260504203519 82 120 0.9 2.6 0.00 0.00 0.00 35 1013.4
20260504203012 83 153 0.9 2.6 0.00 0.00 0.00 34 1013.4
20260504202506 84 134 0.9 1.7 0.00 0.00 0.00 37 1013.7
20260504201951 84 153 0.0 1.7 0.00 0.00 0.00 33 1013.7
20260504201444 84 127 0.0 1.7 0.00 0.00 0.00 34 1013.8
20260504200931 84 116 0.9 2.6 0.00 0.00 0.00 36 1013.8
20260504200430 83 117 0.9 2.6 0.00 0.00 0.00 36 1013.7